Location: Austin
(30.3000°N, 97.7500°W)
Time: 11:07:24
(UTC-05:00)

NOSS 0 Rocket - Pass Details

Date: 03 April 2024
Orbit: 936 x 952 km, 70.0° (Epoch: 21 April)

Event Time Altitude Azimuth Distance (km) Brightness Sun altitude
Exits shadow 06:00:31 - 197° (SSW) 3,062 6.3 -17.0°
Reaches altitude 10° 06:01:38 10° 197° (SSW) 2,641 6.0 -16.8°
Maximum altitude 06:07:46 84° 109° (ESE) 945 4.0 -15.5°
Drops below altitude 10° 06:13:55 10° 22° (NNE) 2,649 6.8 -14.2°
Sets 06:16:27 0° 22° (NNE) 3,596 7.5 -13.7°
